This is the latest recevied weather packets stored in our database for station/object K5NCO. If no packets are shown the sender has not sent any weather packets the latest 10 day(s).
| Time | Temp. | Humidity | Pressure | Rain* | Wind** | Luminosity | Snow |
|---|---|---|---|---|---|---|---|
| 1777790425 | 13.89° C | 85% | 1023.3 hPa | 0 mm | - | 0 W/m² | - |
| 1777790123 | 13.89° C | 85% | 1023.5 hPa | 0 mm | - | 0 W/m² | - |
| 1777789821 | 13.89° C | 84% | 1023.5 hPa | 0 mm | - | 0 W/m² | - |
| 1777789520 | 13.89° C | 84% | 1023.4 hPa | 0 mm | - | 0 W/m² | - |
| 1777789217 | 13.89° C | 84% | 1023.5 hPa | 0 mm | - | 0 W/m² | - |
| 1777788914 | 13.89° C | 86% | 1023.5 hPa | 0 mm | - | 0 W/m² | - |
| 1777788610 | 14.44° C | 84% | 1023.3 hPa | 0 mm | - | 0 W/m² | - |
| 1777788309 | 14.44° C | 83% | 1023.2 hPa | 0 mm | - | 0 W/m² | - |
| 1777788006 | 14.44° C | 86% | 1023.4 hPa | 0 mm | - | 0 W/m² | - |
| 1777787701 | 14.44° C | 85% | 1023.2 hPa | 0 mm | - | 0 W/m² | - |
| 1777787397 | 14.44° C | 83% | 1023.3 hPa | 0 mm | - | 0 W/m² | - |
| 1777787093 | 14.44° C | 83% | 1023.3 hPa | 0 mm | - | 0 W/m² | - |
| 1777786791 | 15° C | 81% | 1023.5 hPa | 0 mm | - | 0 W/m² | - |
| 1777786488 | 15° C | 79% | 1023.5 hPa | 0 mm | - | 0 W/m² | - |
| 1777786185 | 15° C | 79% | 1023.6 hPa | 0 mm | - | 0 W/m² | - |
| 1777785883 | 15° C | 78% | 1023.7 hPa | 0 mm | - | 0 W/m² | - |
| 1777785578 | 15° C | 79% | 1023.4 hPa | 0 mm | - | 0 W/m² | - |
| 1777785274 | 15° C | 79% | 1023.5 hPa | 0 mm | - | 0 W/m² | - |
| 1777784972 | 15° C | 80% | 1023.5 hPa | 0 mm | - | 0 W/m² | - |
| 1777784667 | 15° C | 79% | 1023.4 hPa | 0 mm | - | 0 W/m² | - |
| 1777784366 | 15.56° C | 77% | 1023.3 hPa | 0 mm | - | 0 W/m² | - |
| 1777784063 | 15.56° C | 76% | 1023.2 hPa | 0 mm | - | 0 W/m² | - |
| 1777783759 | 15.56° C | 77% | 1023.3 hPa | 0 mm | - | 0 W/m² | - |
| 1777783456 | 15.56° C | 77% | 1023.4 hPa | 0 mm | - | 0 W/m² | - |
| 1777783154 | 15.56° C | 76% | 1023.4 hPa | 0 mm | - | 0 W/m² | - |
* Rain latest hour (hover to see other rain measurements)
** Current wind speed in m/s (hover to see current wind gust speed)